| time (UTC) | temp F | wind direction | speed MPH | gust MPH | rain 1hr in | rain 24hr in | rain mn in | humidity % | barometer mb |
| 20260504100104 | 34 | 248 | 0.0 | 0.0 | 0.00 | 0.00 | 0.00 | 58 | 1012.8 |
| 20260504090108 | 35 | 248 | 0.0 | 0.0 | 0.00 | 0.00 | 0.00 | 58 | 1013.0 |
| 20260504081554 | 36 | 248 | 0.0 | 0.0 | 0.00 | 0.00 | 0.00 | 59 | 1013.1 |
| 20260504044526 | 40 | 244 | 1.0 | 3.0 | 0.00 | 0.00 | 0.00 | 52 | 1013.0 |
| 20260504043033 | 41 | 244 | 0.0 | 1.0 | 0.00 | 0.00 | 0.00 | 51 | 1012.8 |
| 20260504041522 | 42 | 244 | 0.0 | 0.0 | 0.00 | 0.00 | 0.00 | 48 | 1012.9 |
| 20260504040023 | 42 | 244 | 0.0 | 1.0 | 0.00 | 0.00 | 0.00 | 47 | 1012.8 |
| 20260504034518 | 43 | 244 | 0.0 | 0.0 | 0.00 | 0.00 | 0.00 | 46 | 1012.6 |
| 20260504033019 | 43 | 244 | 0.0 | 0.0 | 0.00 | 0.00 | 0.00 | 45 | 1012.5 |
| 20260504031517 | 44 | 244 | 0.0 | 1.0 | 0.00 | 0.00 | 0.00 | 44 | 1012.6 |
| 20260504030017 | 44 | 244 | 0.0 | 2.0 | 0.00 | 0.00 | 0.00 | 43 | 1012.5 |
| 20260504024516 | 45 | 244 | 0.0 | 2.0 | 0.00 | 0.00 | 0.00 | 43 | 1012.6 |
| 20260504023019 | 46 | 244 | 0.0 | 2.0 | 0.00 | 0.00 | 0.00 | 43 | 1012.6 |
| 20260504021515 | 46 | 244 | 2.0 | 5.0 | 0.00 | 0.00 | 0.00 | 41 | 1012.6 |
| 20260504020017 | 46 | 244 | 2.0 | 5.0 | 0.00 | 0.00 | 0.00 | 41 | 1012.5 |
| 20260504014514 | 47 | 234 | 1.0 | 4.0 | 0.00 | 0.00 | 0.00 | 40 | 1012.5 |
| 20260504013018 | 47 | 248 | 1.0 | 7.0 | 0.00 | 0.00 | 0.00 | 38 | 1012.4 |
| 20260504011520 | 48 | 261 | 1.0 | 6.0 | 0.00 | 0.00 | 0.00 | 37 | 1012.3 |
| 20260504010012 | 49 | 261 | 1.0 | 6.0 | 0.00 | 0.00 | 0.00 | 35 | 1012.1 |
| 20260504004511 | 50 | 260 | 2.0 | 7.0 | 0.00 | 0.00 | 0.00 | 32 | 1012.1 |
| 20260504003012 | 51 | 264 | 2.0 | 8.0 | 0.00 | 0.00 | 0.00 | 32 | 1011.8 |
| 20260504001511 | 52 | 271 | 2.0 | 12.0 | 0.00 | 0.00 | 0.00 | 31 | 1011.7 |
| 20260504000011 | 52 | 273 | 3.0 | 10.0 | 0.00 | 0.00 | 0.00 | 29 | 1011.7 |
| 20260503234510 | 53 | 251 | 4.0 | 9.0 | 0.00 | 0.00 | 0.00 | 27 | 1011.5 |
| 20260503233010 | 54 | 294 | 6.0 | 14.0 | 0.00 | 0.00 | 0.00 | 27 | 1011.2 |
| 20260503231514 | 54 | 257 | 6.0 | 13.0 | 0.00 | 0.00 | 0.00 | 26 | 1011.2 |
| 20260503230013 | 55 | 227 | 5.0 | 17.0 | 0.00 | 0.00 | 0.00 | 26 | 1011.2 |
| 20260503224512 | 55 | 303 | 4.0 | 16.0 | 0.00 | 0.00 | 0.00 | 26 | 1011.2 |
| 20260503223009 | 56 | 271 | 4.0 | 16.0 | 0.00 | 0.00 | 0.00 | 26 | 1011.1 |
| 20260503221508 | 56 | 300 | 2.0 | 13.0 | 0.00 | 0.00 | 0.00 | 25 | 1011.1 |
| 20260503220008 | 56 | 288 | 6.0 | 18.0 | 0.00 | 0.00 | 0.00 | 25 | 1011.2 |
| 20260503214506 | 56 | 336 | 3.0 | 15.0 | 0.00 | 0.00 | 0.00 | 25 | 1011.1 |
| 20260503213006 | 57 | 323 | 9.0 | 17.0 | 0.00 | 0.00 | 0.00 | 24 | 1011.0 |
| 20260503211505 | 58 | 234 | 6.0 | 15.0 | 0.00 | 0.00 | 0.00 | 23 | 1010.9 |
| 20260503210003 | 58 | 245 | 10.0 | 23.0 | 0.00 | 0.00 | 0.00 | 24 | 1011.0 |
| 20260503204505 | 56 | 284 | 6.0 | 14.0 | 0.00 | 0.00 | 0.00 | 26 | 1010.8 |
| 20260503203004 | 56 | 286 | 5.0 | 19.0 | 0.00 | 0.00 | 0.00 | 29 | 1010.9 |
| 20260503201601 | 56 | 257 | 7.0 | 23.0 | 0.00 | 0.00 | 0.00 | 22 | 1011.0 |
| 20260503200104 | 57 | 310 | 5.0 | 16.0 | 0.00 | 0.00 | 0.00 | 25 | 1011.0 |
| 20260503194602 | 57 | 251 | 11.0 | 20.0 | 0.00 | 0.00 | 0.00 | 22 | 1011.2 |
| 20260503193055 | 56 | 311 | 5.0 | 21.0 | 0.00 | 0.00 | 0.00 | 24 | 1011.6 |
| 20260503191553 | 56 | 313 | 7.0 | 15.0 | 0.00 | 0.00 | 0.00 | 22 | 1011.7 |
| 20260503190051 | 55 | 265 | 9.0 | 23.0 | 0.00 | 0.00 | 0.00 | 26 | 1011.7 |
| 20260503184600 | 55 | 250 | 8.0 | 16.0 | 0.00 | 0.00 | 0.00 | 25 | 1012.0 |
| 20260503183047 | 55 | 291 | 7.0 | 19.0 | 0.00 | 0.00 | 0.00 | 26 | 1012.0 |
| 20260503181547 | 54 | 284 | 2.0 | 15.0 | 0.00 | 0.00 | 0.00 | 28 | 1012.3 |
| 20260503180054 | 52 | 263 | 9.0 | 18.0 | 0.00 | 0.00 | 0.00 | 29 | 1012.1 |
| 20260503174545 | 53 | 287 | 7.0 | 17.0 | 0.00 | 0.00 | 0.00 | 28 | 1012.6 |
| 20260503173048 | 52 | 309 | 4.0 | 15.0 | 0.00 | 0.00 | 0.00 | 29 | 1012.5 |
| 20260503171540 | 51 | 110 | 3.0 | 15.0 | 0.00 | 0.00 | 0.00 | 27 | 1012.5 |